Temperature
1 1 1 2 2 2 2 2 2 1 1 2 2 3 3 3 3 3 3 4 4 4 4 4 4 4 4 4 4 4 4 4 4 4 4 4 4 4
1 1 1 1 1 1 1 1 1 1 1 1 2 2 2 2 2 3 3 3 3 3 3 3 3 3 3 3 3 3 3 4 4 4 4 4 4 4
0 0 0 1 1 1 1 1 0 0 0 0 1 1 1 1 2 2 2 2 2 2 2 2 2 2 2 2 2 3 3 3 3 3 3 3 3 3
-0 -0 -0 0 0 0 -0 -0 -0 -0 -0 -0 0 0 1 1 1 1 1 1 1 2 2 2 2 2 2 2 2 2 2 2 2 2 2 3 3 3
-1 -1 -1 -1 -1 -1 -1 -1 -1 -1 -1 -1 -1 -1 -0 0 0 0 0 1 1 1 1 1 1 1 1 1 1 1 2 2 2 2 2 2 2 2
-1 -1 -1 -1 -1 -1 -1 -1 -1 -1 -1 -2 -1 -1 -1 -1 -1 -0 -0 -0 0 0 0 0 1 1 1 1 1 1 1 1 1 1 1 1 1 1
-2 -2 -2 -2 -2 -2 -2 -2 -2 -2 -2 -2 -2 -2 -2 -2 -1 -1 -1 -1 -1 -1 -1 -0 -0 -0 -0 -0 0 0 0 0 0 0 0 0 0 0
-3 -3 -3 -3 -3 -3 -3 -3 -3 -3 -3 -3 -3 -3 -3 -3 -2 -2 -2 -2 -2 -2 -2 -1 -1 -1 -1 -1 -1 -1 -0 -1 -0 -0 -0 -0 -0 -0
-4 -4 -4 -4 -4 -4 -3 -3 -3 -3 -4 -4 -4 -4 -3 -3 -3 -3 -3 -3 -3 -3 -3 -2 -2 -2 -2 -2 -1 -1 -1 -1 -1 -1 -1 -1 -1 -1
-4 -4 -5 -5 -4 -4 -4 -4 -4 -4 -4 -4 -4 -4 -4 -4 -4 -4 -4 -4 -4 -4 -4 -4 -3 -3 -3 -2 -2 -2 -2 -2 -2 -2 -2 -2 -2 -2
-5 -5 -5 -5 -5 -5 -5 -5 -5 -5 -5 -5 -5 -5 -5 -5 -5 -5 -5 -5 -5 -4 -4 -4 -4 -4 -4 -3 -3 -3 -3 -3 -3 -3 -3 -3 -3 -3
-6 -6 -6 -6 -6 -6 -6 -6 -6 -6 -5 -5 -5 -5 -5 -5 -5 -5 -5 -6 -6 -6 -5 -5 -5 -5 -5 -5 -4 -4 -4 -4 -4 -4 -3 -3 -4 -4
-7 -7 -7 -7 -7 -7 -7 -7 -7 -6 -6 -6 -6 -6 -6 -6 -6 -6 -6 -6 -6 -6 -6 -6 -6 -6 -6 -6 -5 -5 -5 -5 -5 -4 -4 -4 -4 -4
-7 -8 -8 -7 -7 -7 -7 -7 -7 -7 -7 -7 -7 -7 -7 -6 -6 -6 -6 -7 -6 -6 -6 -6 -7 -6 -7 -7 -6 -6 -5 -5 -5 -5 -5 -5 -5 -5
-8 -8 -8 -8 -8 -8 -8 -8 -8 -8 -8 -8 -8 -8 -7 -7 -7 -7 -7 -7 -7 -7 -7 -7 -7 -7 -7 -7 -7 -7 -6 -6 -6 -6 -6 -6 -5 -5
-9 -9 -9 -8 -8 -9 -8 -8 -8 -9 -9 -9 -8 -8 -8 -8 -8 -8 -8 -8 -8 -8 -7 -8 -8 -8 -8 -7 -7 -7 -7 -7 -7 -7 -7 -6 -6 -6
-9 -9 -9 -9 -9 -9 -9 -9 -9 -9 -9 -9 -9 -9 -9 -9 -9 -9 -9 -9 -9 -9 -8 -8 -8 -8 -8 -8 -8 -8 -8 -8 -7 -7 -7 -7 -7 -7
-10 -10 -10 -10 -10 -10 -10 -10 -10 -10 -10 -10 -10 -10 -10 -10 -10 -10 -10 -10 -10 -9 -9 -9 -9 -9 -9 -9 -8 -8 -8 -8 -8 -8 -8 -8 -8 -7
-10 -11 -11 -11 -11 -11 -11 -11 -11 -11 -11 -11 -11 -11 -11 -11 -10 -10 -10 -10 -10 -10 -10 -10 -10 -10 -10 -9 -9 -9 -9 -9 -9 -9 -9 -9 -9 -8
-11 -11 -11 -11 -11 -11 -11 -11 -11 -11 -11 -11 -11 -11 -11 -11 -11 -11 -11 -11 -11 -11 -10 -10 -10 -10 -10 -10 -10 -9 -9 -9 -9 -9 -9 -9 -9 -9
-11 -11 -11 -11 -11 -11 -12 -12 -12 -12 -12 -12 -12 -12 -11 -11 -11 -11 -11 -11 -11 -11 -11 -11 -10 -10 -10 -10 -10 -10 -10 -10 -10 -10 -10 -10 -10 -10
-12 -12 -12 -12 -12 -12 -12 -12 -12 -12 -12 -12 -12 -12 -12 -12 -12 -12 -12 -12 -12 -12 -11 -11 -11 -11 -11 -11 -11 -11 -10 -10 -10 -10 -10 -10 -10 -10
-12 -12 -12 -12 -12 -12 -12 -12 -12 -12 -12 -12 -12 -12 -12 -12 -12 -12 -12 -12 -12 -12 -12 -12 -12 -12 -12 -12 -11 -11 -11 -11 -11 -10 -10 -10 -10 -10
Wind_Speed
6 7 6 5 5 5 5 5 5 5 6 5 4 4 4 5 6 7 8 8 9 10 10 10 10 11 11 11 11 11 11 11 11 11 12 12 12 12
6 7 6 5 5 5 5 5 6 6 6 4 5 4 5 6 7 8 9 9 10 10 11 11 11 11 12 12 12 11 12 11 11 12 12 12 13 13
7 8 8 7 5 5 5 5 6 6 8 7 5 5 6 7 7 8 9 9 9 11 12 12 12 12 12 12 12 12 12 12 13 13 13 13 13 14
8 8 8 6 8 6 6 6 6 6 7 8 7 6 7 7 8 8 8 8 9 11 12 13 13 13 13 13 13 13 13 13 13 13 13 14 14 15
8 8 8 8 8 7 7 7 6 6 6 7 7 6 6 6 7 7 8 7 9 9 11 12 13 13 14 14 14 13 13 13 13 13 14 14 14 15
8 7 8 8 9 8 7 7 7 7 7 7 7 6 6 6 6 6 6 6 6 7 9 10 12 13 14 14 14 13 13 13 14 14 15 15 15 16
7 7 8 9 9 8 7 7 7 7 7 7 7 7 6 5 5 5 7 7 7 6 6 7 8 9 10 12 13 13 14 14 14 15 15 16 16 16
8 7 7 9 9 10 10 10 9 9 8 8 7 8 8 7 6 6 6 6 6 4 6 7 7 8 8 10 11 12 14 15 15 15 15 16 16 16
7 7 6 7 8 7 8 9 9 11 11 10 10 10 9 7 7 8 7 8 8 6 6 8 7 8 8 10 12 14 15 15 15 16 16 17 17 17
7 7 8 7 7 7 7 7 8 8 9 9 9 9 8 8 8 8 8 9 9 8 6 8 7 8 8 9 12 13 14 15 15 16 17 17 18 18
6 7 8 7 8 9 8 7 8 7 8 10 12 11 12 11 10 7 7 7 8 7 6 6 6 7 8 8 9 11 13 14 15 16 16 16 16 16
5 6 8 9 9 9 8 7 8 7 6 7 8 10 10 10 11 9 8 8 7 6 5 5 5 4 5 5 6 6 8 12 14 15 16 16 15 12
5 5 5 8 9 9 8 7 8 7 7 7 7 7 7 7 7 8 9 8 8 8 5 5 5 6 6 6 6 7 7 8 9 11 13 14 14 12
5 4 5 7 8 8 7 7 8 7 5 5 6 6 6 6 6 7 9 9 9 10 10 8 7 7 7 8 7 6 7 8 8 8 9 11 12 13
4 6 6 7 7 6 7 7 6 5 5 5 5 5 5 5 5 5 6 7 8 10 10 10 9 8 8 8 8 8 8 8 7 7 7 8 8 8
3 3 5 5 4 4 4 4 4 4 4 5 5 5 4 5 5 5 5 5 6 6 7 9 10 10 9 9 9 9 8 7 6 7 8 8 8 9
2 2 2 2 2 2 3 3 3 3 4 4 5 5 4 5 5 4 5 5 6 7 6 5 7 8 9 8 8 8 8 8 8 8 8 8 8 8
2 2 2 2 3 3 3 3 3 3 4 4 4 5 5 5 5 5 5 6 6 6 6 6 5 5 6 7 8 9 8 8 7 8 7 8 9 8
2 2 3 3 3 3 3 4 4 4 4 4 5 5 5 5 5 5 5 5 6 6 6 6 5 5 7 8 6 6 7 7 7 7 7 8 9 9
2 3 3 3 4 4 4 4 4 4 4 5 5 5 5 5 5 5 5 6 6 6 7 6 6 6 7 7 7 6 7 7 7 8 7 7 8 10
3 3 3 4 4 4 4 4 4 4 5 5 5 5 5 5 6 6 6 7 7 7 7 7 6 7 6 5 5 6 7 8 8 7 7 7 8 8
4 4 4 4 4 4 4 4 4 5 5 5 5 5 5 5 6 7 6 6 6 7 7 7 6 5 5 6 7 8 8 7 8 10 10 10 7 6
4 4 4 4 4 4 4 5 5 5 5 5 5 5 5 5 6 6 6 6 6 6 7 6 5 5 5 6 7 7 8 8 7 6 6 9 11 14
Wind_Direction
232 234 233 232 236 237 233 231 238 247 250 242 234 227 240 247 254 254 259 263 264 266 271 275 276 277 279 279 279 281 283 283 285 283 281 283 278 273
231 231 233 235 235 232 230 235 241 248 253 251 253 260 254 257 263 260 260 265 258 260 266 270 272 273 275 276 275 277 280 279 279 283 279 280 279 272
234 231 233 235 235 231 226 229 235 240 252 258 254 260 261 260 262 263 260 260 260 259 263 266 268 270 269 270 271 272 274 276 276 279 279 276 279 277
234 233 237 235 235 231 227 230 235 238 246 257 260 258 261 266 265 267 261 258 261 262 262 265 266 267 268 269 268 269 270 271 272 274 276 273 275 277
237 236 238 235 233 231 232 235 238 242 246 252 260 261 263 265 268 268 265 259 262 262 260 260 260 263 266 266 264 266 266 267 269 271 275 273 274 276
241 239 242 239 235 234 235 237 239 242 243 246 254 258 261 266 266 267 272 261 263 265 261 260 261 261 261 261 260 261 263 263 266 269 272 273 273 274
242 241 244 243 241 240 240 239 238 241 244 247 252 256 253 257 259 263 272 272 269 263 265 261 262 262 260 256 254 256 259 262 265 269 271 273 271 272
240 241 243 240 238 242 247 248 244 243 243 246 251 252 254 257 262 261 268 275 269 261 270 271 266 264 263 261 259 260 262 263 265 268 270 272 270 271
240 241 244 241 238 239 243 246 251 251 247 247 252 256 261 259 263 263 260 268 272 274 274 273 268 266 268 263 260 260 261 263 266 268 268 270 269 270
240 239 241 242 238 237 241 245 248 250 248 246 251 258 263 264 260 263 267 271 275 272 259 268 272 273 274 267 257 257 262 265 268 270 269 270 270 269
244 239 238 240 240 241 240 242 250 254 252 248 254 260 266 270 267 265 261 261 270 271 256 258 273 284 279 271 263 257 261 264 268 270 271 269 270 270
249 243 238 241 242 243 242 244 250 256 257 259 256 256 258 258 255 247 248 251 261 265 248 244 264 283 281 268 270 273 269 270 271 270 271 271 271 268
248 248 243 239 245 249 248 250 254 262 260 258 259 259 257 254 250 248 244 244 250 254 255 257 260 262 263 277 282 278 274 277 276 272 269 268 266 263
249 252 252 248 248 252 252 256 260 264 259 259 260 260 258 257 257 256 254 255 256 259 257 258 259 255 263 272 277 278 278 278 277 276 275 271 267 263
255 251 251 251 251 251 251 256 259 260 258 258 263 270 271 268 265 263 262 262 265 263 260 256 255 256 254 261 269 275 284 283 273 274 275 271 271 273
267 259 253 251 249 252 256 255 255 257 259 261 267 273 275 270 263 262 265 266 268 268 260 257 257 257 257 259 263 269 272 270 272 276 278 277 274 269
266 267 264 257 254 261 267 269 266 261 261 263 267 271 271 270 266 262 261 264 263 268 272 266 262 260 260 261 262 264 268 273 272 275 280 277 274 272
265 248 249 253 257 262 264 267 268 266 266 266 266 267 267 266 267 265 261 260 262 268 273 273 272 273 269 261 246 260 265 269 276 277 278 277 278 279
260 251 253 258 261 262 264 268 270 269 266 262 263 264 264 263 263 264 261 262 265 268 271 272 266 263 266 273 269 243 263 277 279 278 278 277 278 284
259 259 262 263 263 263 264 267 271 270 265 262 261 261 261 262 261 264 263 262 266 271 274 273 264 259 262 272 282 282 269 270 276 278 282 285 284 285
266 264 266 266 263 263 265 267 269 270 269 265 263 262 262 263 262 261 262 265 265 265 268 271 275 278 277 278 276 279 284 275 270 273 282 285 290 291
268 268 268 268 266 262 261 261 263 266 267 263 263 262 261 261 260 260 262 263 264 264 269 275 281 281 270 263 270 281 292 296 289 281 274 272 275 280
275 275 274 271 267 264 261 260 262 265 265 264 264 265 264 264 264 261 264 262 263 266 270 275 279 277 273 268 272 277 285 293 296 299 293 293 285 279
Height
1499 1500 1501 1502 1503 1504 1505 1506 1508 1507 1506 1505 1506 1506 1506 1506 1507 1507 1507 1507 1508 1508 1508 1508 1508 1508 1507 1507 1508 1508 1507 1508 1508 1508 1508 1508 1508 1509
1494 1495 1496 1498 1498 1499 1500 1501 1502 1502 1501 1500 1501 1501 1501 1501 1501 1502 1502 1502 1502 1502 1502 1502 1502 1502 1502 1502 1502 1502 1501 1501 1501 1502 1502 1502 1502 1502
1489 1490 1491 1492 1493 1494 1494 1495 1496 1497 1496 1495 1496 1495 1496 1496 1496 1496 1496 1496 1496 1496 1496 1496 1496 1496 1495 1495 1495 1495 1495 1495 1495 1495 1495 1495 1495 1495
1484 1485 1486 1487 1487 1488 1489 1489 1490 1491 1491 1490 1490 1490 1490 1490 1490 1490 1490 1490 1489 1489 1490 1490 1490 1489 1489 1489 1489 1488 1488 1488 1488 1488 1488 1489 1489 1489
1478 1479 1480 1481 1481 1482 1483 1484 1484 1485 1485 1484 1484 1484 1484 1485 1485 1484 1484 1483 1483 1483 1483 1483 1483 1483 1483 1482 1482 1482 1481 1481 1481 1481 1481 1481 1481 1481
1472 1473 1473 1474 1475 1476 1477 1478 1478 1479 1479 1479 1478 1478 1478 1478 1479 1478 1477 1477 1477 1477 1476 1476 1476 1476 1476 1476 1475 1475 1474 1474 1474 1474 1474 1474 1474 1474
1466 1466 1467 1468 1469 1470 1471 1471 1472 1473 1473 1473 1473 1472 1472 1472 1472 1472 1472 1471 1470 1470 1469 1469 1469 1469 1468 1468 1468 1468 1467 1467 1467 1467 1466 1466 1466 1466
1460 1460 1461 1462 1462 1463 1464 1465 1466 1466 1466 1466 1466 1466 1466 1467 1467 1466 1466 1465 1463 1464 1463 1462 1463 1461 1461 1461 1460 1460 1460 1460 1460 1459 1459 1458 1458 1458
1453 1454 1454 1455 1455 1456 1457 1458 1459 1459 1460 1461 1460 1460 1460 1461 1461 1460 1460 1459 1458 1458 1457 1455 1455 1454 1454 1453 1453 1453 1453 1452 1452 1451 1451 1450 1450 1450
1447 1448 1449 1448 1449 1450 1450 1451 1452 1452 1453 1453 1454 1454 1455 1455 1455 1455 1454 1453 1451 1451 1451 1449 1448 1447 1447 1446 1446 1446 1446 1445 1444 1443 1443 1442 1442 1442
1441 1442 1442 1442 1443 1444 1445 1444 1445 1445 1446 1447 1447 1447 1448 1448 1448 1448 1447 1447 1444 1444 1445 1443 1441 1441 1439 1438 1438 1438 1438 1437 1436 1436 1435 1434 1434 1434
1435 1435 1436 1436 1437 1438 1439 1439 1439 1439 1440 1440 1440 1440 1441 1441 1441 1441 1441 1441 1439 1438 1437 1438 1436 1436 1433 1431 1431 1431 1430 1430 1429 1428 1427 1427 1426 1425
1429 1429 1430 1431 1432 1432 1433 1433 1433 1434 1434 1434 1434 1434 1434 1434 1434 1434 1434 1434 1433 1432 1432 1432 1430 1430 1429 1425 1424 1424 1424 1422 1421 1420 1419 1419 1418 1418
1424 1425 1425 1425 1426 1427 1428 1428 1428 1429 1429 1428 1428 1427 1427 1427 1427 1428 1428 1428 1427 1426 1426 1426 1425 1424 1422 1420 1418 1417 1417 1415 1414 1413 1412 1411 1410 1410
1420 1420 1420 1421 1421 1421 1422 1422 1423 1423 1423 1422 1422 1422 1422 1421 1421 1421 1421 1421 1420 1420 1419 1419 1419 1417 1417 1414 1412 1411 1409 1408 1407 1406 1404 1404 1403 1402
1416 1416 1416 1416 1416 1416 1417 1417 1417 1417 1417 1417 1416 1416 1416 1416 1415 1415 1415 1414 1414 1413 1413 1413 1413 1412 1410 1408 1407 1405 1404 1402 1400 1400 1398 1397 1396 1394
1413 1412 1412 1412 1412 1412 1412 1412 1412 1413 1412 1412 1412 1411 1411 1411 1411 1410 1410 1409 1408 1407 1406 1407 1406 1406 1405 1403 1401 1399 1398 1396 1395 1393 1391 1389 1388 1387
1410 1409 1408 1408 1408 1408 1408 1408 1408 1408 1408 1408 1407 1407 1406 1406 1405 1405 1405 1404 1403 1402 1401 1401 1400 1399 1398 1397 1396 1393 1392 1390 1389 1388 1386 1383 1381 1380
1407 1406 1405 1405 1405 1405 1405 1404 1404 1404 1404 1403 1403 1402 1402 1401 1401 1400 1399 1399 1398 1397 1396 1396 1395 1394 1392 1390 1388 1389 1387 1385 1383 1381 1380 1378 1375 1372
1403 1403 1402 1402 1402 1401 1401 1401 1400 1400 1400 1399 1399 1398 1397 1397 1396 1395 1395 1394 1393 1392 1391 1391 1390 1389 1388 1386 1383 1382 1382 1380 1378 1376 1374 1372 1369 1367
1400 1400 1399 1399 1398 1398 1398 1397 1397 1396 1396 1395 1394 1394 1393 1393 1392 1391 1390 1389 1389 1387 1386 1385 1385 1385 1383 1382 1379 1376 1376 1375 1374 1371 1369 1366 1364 1361
1397 1396 1396 1395 1395 1394 1394 1394 1393 1393 1392 1391 1391 1390 1389 1388 1387 1386 1385 1384 1383 1382 1381 1381 1380 1379 1378 1376 1374 1372 1370 1369 1368 1366 1365 1363 1360 1356
1393 1393 1392 1392 1391 1391 1390 1390 1389 1389 1388 1387 1386 1385 1384 1384 1383 1381 1380 1380 1379 1378 1377 1376 1375 1374 1373 1372 1370 1368 1366 1364 1362 1360 1359 1358 1356 1354